Flag for Syria Weather past 2 weeks in Aleppo, Syria

Now
84 °F

Scattered clouds.


Feels Like: 90 °F
Forecast: 71 / 100 °F
Wind: 7 mph from West

Location: Iskenderun

Current Time: Jul 28, 2014 at 7:54:55 PM

Latest Report: Jul 28, 2014 at 7:00 PM


Visibility: 13 mi

Pressure: 29.81 "Hg

Humidity: 72%

Dew point: 74 °F

Location of AleppoLocation

Historic Weather in Aleppo — Graph

°F

Aleppo temperature yesterday

Maximum temperature yesterday: 84 °F (at 12:00 PM)
Minimum temperature yesterday: 80 °F (at 3:00 AM)
Average temperature yesterday: 83 °F

Past Weeks' High & Low Weather Summary

 TemperatureHumidityPressure
High86 °F (Jul 17, 2:00 PM)77% (Jul 21, 6:00 AM)29.88 "Hg (Jul 21, 6:00 AM)
Low77 °F (Jul 21, 3:00 AM)56% (Jul 17, 3:00 PM)29.62 "Hg (Jul 20, 6:00 AM)
Average83 °F67%29.73 "Hg
* Reported Jul 13 6:00 PM — Jul 28 6:00 PM, Aleppo, Weather by CustomWeather, © 2014

Note: Actual official high and low records may vary slightly from our data, if they occured in-between our weather recording intervals... More about our weather records

Advertising

Aleppo weather history for previous 24 hours

 ConditionsComfort  
Time TempWeatherWind HumidityBarometerVisibility
6:00 PM
Jul 28
84 °FScattered clouds.9 mph70%29.81 "Hg12 mi
5:00 PM84 °FPassing clouds.12 mph69%29.81 "Hg9 mi
4:00 PM85 °FPassing clouds.13 mph68%29.81 "Hg9 mi
3:00 PM86 °FPassing clouds.12 mph68%29.82 "Hg9 mi
2:00 PM85 °FScattered clouds.10 mph64%29.83 "Hg10 mi
1:00 PM86 °FScattered clouds.7 mph65%29.85 "Hg9 mi
12:00 PM86 °FScattered clouds.7 mph65%29.87 "Hg9 mi
11:00 AM85 °FPartly sunny.2 mph63%29.87 "Hg9 mi
10:00 AM83 °FScattered clouds.3 mph65%29.88 "Hg9 mi
9:00 AM83 °FScattered clouds.No wind67%29.87 "Hg9 mi
6:00 AM80 °FPartly sunny.No wind70%29.85 "Hg9 mi
3:00 AM81 °FPassing clouds.5 mph72%29.86 "Hg9 mi
12:00 AM81 °FPassing clouds.7 mph74%29.88 "Hg9 mi
9:00 PM
Jul 27
82 °FPassing clouds.5 mph71%29.87 "Hg9 mi
8:00 PM82 °FPassing clouds.5 mph68%29.87 "Hg9 mi
7:00 PM83 °FScattered clouds.6 mph67%29.85 "Hg9 mi
Weather by CustomWeather, © 2014

See weather overviewHow to use our weather pages